Temp
13 13 12 12 12 12 11 11 11 11 11 11 10 10 10 10 9 9 9 9 9 9 9 9 9 9 9 10 9 9 9 8 8 8 7 7 7 6 6 6 6 6 6 6 5 5 4 4 4 3 3 3 3 3 3 3 3 2 2 2 2 2 2 2 2 2 1 1 1
13 12 12 12 12 12 11 11 11 11 11 10 10 10 10 10 9 9 9 9 9 9 9 9 9 9 9 9 9 9 8 8 8 7 7 7 6 6 6 6 5 5 5 5 5 4 4 4 3 3 3 3 3 2 2 3 3 2 2 2 2 2 2 2 2 1 1 1 1
13 12 12 12 12 12 12 11 11 11 11 11 10 10 10 10 9 9 9 9 9 9 9 9 9 9 9 9 9 8 8 8 7 7 7 7 6 6 6 5 5 5 5 5 4 4 4 3 3 3 3 3 3 2 2 2 2 2 2 2 2 2 2 1 1 1 1 1 1
13 12 12 12 12 12 12 12 12 11 11 11 10 10 10 10 9 9 9 9 9 9 9 9 9 9 9 9 8 8 8 7 7 7 7 7 6 6 6 5 5 5 5 5 4 4 3 3 3 3 3 3 3 2 2 2 2 2 2 2 2 2 2 1 1 1 1 1 1
13 12 12 12 12 12 12 12 12 11 11 10 10 10 10 10 9 9 9 9 9 9 9 9 9 8 8 8 8 8 7 7 7 7 7 7 6 6 5 5 5 5 4 4 4 4 3 3 3 3 3 3 2 2 2 2 2 2 2 2 2 2 1 1 1 1 1 1 0
12 12 12 12 12 12 12 12 11 11 11 10 10 10 10 10 10 9 9 9 9 9 9 9 8 8 8 8 8 8 7 7 7 7 7 7 6 5 5 5 4 4 4 4 4 3 3 3 3 3 2 2 2 2 2 2 2 2 2 2 1 1 1 1 1 1 1 0 0
12 12 12 12 12 12 12 12 11 11 11 10 10 10 10 10 10 10 10 9 9 9 9 8 8 8 8 8 8 8 8 7 7 7 7 6 6 5 5 4 4 4 4 3 3 3 3 3 3 2 2 2 2 2 2 2 2 2 2 2 1 1 1 1 1 1 0 0 0
12 12 12 12 12 12 12 12 11 11 11 10 10 10 10 10 10 10 10 9 9 9 8 8 8 8 8 8 8 8 8 7 7 7 7 6 6 5 5 4 4 4 3 3 3 3 3 3 3 2 2 2 2 2 2 2 2 2 2 1 1 1 1 1 1 0 0 0 -0
12 12 12 12 12 12 12 12 11 11 11 10 10 10 10 10 10 10 9 9 9 9 8 8 8 8 8 8 8 8 7 7 7 7 7 6 5 5 4 4 4 3 3 3 3 3 3 3 2 2 2 2 2 2 2 2 2 2 2 1 1 1 1 0 0 0 -0 -0 -0
12 12 12 12 12 12 12 11 11 11 11 10 10 10 10 10 9 9 9 9 9 9 9 9 9 9 8 8 8 7 7 7 7 7 6 6 5 5 4 4 4 3 3 3 3 3 2 2 2 2 2 2 2 2 2 2 1 1 1 1 1 1 1 1 0 0 -0 -0 -0
12 12 12 12 12 12 11 11 11 10 10 10 10 10 10 9 9 9 9 9 9 9 9 9 9 8 8 7 7 7 7 7 7 6 6 5 5 5 4 4 4 3 3 3 3 2 2 2 2 2 2 2 2 2 2 2 1 1 1 1 1 1 1 1 1 0 0 0 -0
12 12 12 12 11 11 11 11 10 10 10 10 10 10 9 9 9 9 9 9 9 9 9 9 8 8 8 7 7 6 6 6 6 6 6 5 5 4 4 4 4 3 3 3 2 2 2 2 2 2 2 2 2 2 2 2 1 1 1 1 1 1 1 1 1 0 0 0 -0
12 12 12 12 11 11 11 11 10 10 10 10 10 9 9 9 9 9 9 9 9 9 9 8 8 8 7 7 7 6 6 6 6 6 6 5 5 4 4 4 4 3 3 2 2 2 2 2 2 2 2 2 2 2 2 2 1 1 1 1 1 1 1 1 1 0 0 0 -0
13 12 12 12 12 11 11 11 10 10 10 10 9 9 9 9 9 9 9 10 10 9 9 8 8 7 7 7 7 6 6 6 6 6 6 5 5 4 4 4 3 3 3 2 2 2 2 2 2 2 2 2 2 2 2 2 1 1 1 1 1 1 1 1 0 0 0 -0 -0
13 13 12 12 12 11 11 11 10 10 10 10 9 9 9 9 10 10 10 10 9 9 8 8 7 7 7 7 6 6 6 7 6 6 5 5 4 4 4 4 3 3 3 2 2 2 2 2 2 2 2 2 2 2 2 2 1 1 1 1 1 1 1 0 0 0 -0 -0 -1
13 13 12 12 12 11 11 11 10 10 10 9 9 9 9 10 10 10 10 10 9 8 8 8 7 7 6 6 6 7 7 7 6 6 5 4 4 4 4 3 3 3 3 2 2 2 2 2 2 2 2 2 2 2 2 2 1 1 1 1 1 0 0 0 0 -0 -0 -0 -1
13 13 12 12 12 11 11 10 10 10 10 9 9 9 10 10 10 10 10 9 9 8 8 7 7 7 6 6 6 7 7 6 6 5 5 4 4 4 4 3 3 3 3 2 2 2 2 2 2 2 2 2 2 2 2 2 1 1 1 1 0 0 0 0 0 -0 -0 -0 -1
13 13 12 12 11 11 11 10 10 10 9 9 9 9 10 10 10 10 10 9 9 8 7 7 7 6 6 6 6 6 6 6 5 5 4 4 4 4 4 3 3 3 3 2 2 2 2 2 2 1 1 1 1 1 1 1 1 1 1 0 0 0 0 0 -0 -0 -0 -0 -0
13 12 12 11 11 10 10 10 10 9 9 9 9 9 9 9 9 10 9 9 9 8 7 7 7 6 6 6 6 6 5 5 5 4 4 4 4 4 4 3 3 3 2 2 2 2 2 2 2 1 1 1 1 1 1 1 1 1 1 0 0 0 -0 -0 -0 -0 -0 -0 -1
12 12 11 11 10 10 10 9 9 9 9 9 9 8 8 8 9 9 9 9 8 8 7 7 7 6 6 6 6 5 5 4 4 4 4 4 4 4 4 3 3 2 2 2 2 2 2 2 2 1 1 1 1 1 1 1 0 0 0 0 0 -0 -0 -0 -0 -0 -1 -1 -1
12 11 11 10 10 10 9 9 9 9 9 9 8 8 8 8 8 8 8 8 7 7 7 7 6 6 6 5 5 5 5 5 4 4 4 4 4 4 3 3 2 2 2 2 2 2 2 2 2 1 1 1 1 1 1 0 0 0 0 0 -0 -0 -0 -0 -0 -0 -1 -1 -1
11 11 10 10 10 9 9 9 9 9 9 8 8 7 7 7 7 7 7 7 7 7 7 6 6 6 5 5 5 5 5 5 4 4 4 4 4 4 3 3 2 2 2 2 2 2 2 1 1 1 1 1 1 1 0 0 0 0 0 0 -0 -0 -0 -0 -0 -1 -1 -1 -1
11 10 10 10 9 9 9 9 9 8 8 8 7 7 7 7 7 7 7 6 6 6 6 6 6 5 5 5 5 5 5 4 4 4 4 4 4 3 3 2 2 2 2 2 2 2 1 1 1 1 1 1 0 0 0 0 0 0 0 0 0 0 -0 -0 -0 -1 -1 -1 -1
10 10 10 10 10 10 10 9 9 8 8 8 8 7 7 6 6 6 6 6 6 6 6 5 5 5 4 4 5 5 4 4 4 4 4 4 3 3 3 2 2 2 2 2 1 1 1 1 1 1 0 0 0 0 0 -0 -0 -0 -0 0 0 0 0 0 -0 -0 -1 -1 -2
10 10 11 10 10 10 10 9 8 8 8 8 8 7 6 6 6 6 6 5 5 5 5 5 5 4 4 5 5 4 4 4 4 4 4 4 3 3 3 2 2 2 1 1 1 1 1 1 1 1 0 0 0 0 0 -0 -0 -0 -0 -0 -0 -0 -0 -0 -0 -0 -1 -1 -2
11 11 11 10 10 10 9 8 8 8 8 8 7 7 6 6 6 5 5 5 5 5 5 5 4 5 5 5 4 4 4 4 4 4 4 3 3 3 2 2 2 2 1 1 1 1 1 1 1 1 0 0 0 -0 -0 -0 -0 -0 -0 -0 -1 -0 -0 -0 -0 -1 -1 -1 -2
11 11 11 10 9 9 9 9 8 8 8 8 7 7 7 6 5 5 5 5 5 5 4 4 5 5 5 4 4 4 4 4 4 4 4 3 3 3 2 2 2 1 1 1 1 1 1 1 1 1 1 0 0 -0 -0 -0 -0 -0 -0 -1 -1 -1 -1 -1 -1 -1 -1 -1 -2
11 11 11 10 9 9 9 9 8 8 8 8 7 7 7 6 5 5 5 5 4 4 4 4 5 5 5 4 4 4 4 4 4 4 3 3 3 3 2 2 1 1 1 1 1 1 1 1 1 1 1 0 0 0 -0 -0 -0 -0 -0 -0 -1 -1 -1 -1 -1 -1 -1 -1 -2
10 10 10 9 9 9 8 8 8 8 7 7 7 7 6 5 5 5 4 4 4 4 4 4 5 5 4 4 4 4 4 4 4 4 3 3 3 2 2 2 1 1 1 1 1 1 1 1 1 1 1 0 0 0 -0 -0 -0 -0 -0 -0 -0 -1 -1 -1 -1 -1 -1 -2 -2
9 9 9 8 8 7 7 7 7 7 6 6 6 6 5 5 4 4 4 4 4 4 5 5 5 5 4 4 4 4 4 4 4 3 3 3 2 2 2 2 1 1 1 1 1 1 1 1 1 1 1 0 0 0 0 -0 -0 -0 -0 -0 -0 -0 -0 -1 -1 -1 -1 -2 -2
8 8 7 7 7 6 6 6 6 6 6 6 5 5 5 4 4 4 4 4 5 5 5 5 5 5 4 5 4 4 4 4 4 3 3 3 2 2 2 1 1 1 1 1 1 1 1 1 1 1 1 0 0 0 0 0 -0 -0 -0 -0 -0 -0 -0 -1 -1 -1 -1 -1 -2
8 7 7 7 6 6 6 6 6 6 5 5 5 4 4 4 4 4 4 4 5 5 5 5 5 5 5 5 4 4 4 4 3 3 3 2 2 2 1 1 1 1 1 1 1 1 1 1 1 1 0 0 0 0 0 0 -0 -0 -0 -0 -0 -0 -0 -1 -1 -1 -1 -1 -2
8 7 7 7 6 6 6 6 5 5 5 5 5 4 4 4 4 4 4 5 5 5 5 5 5 5 5 5 4 4 4 3 3 3 2 2 2 2 1 1 1 1 1 1 1 1 1 0 0 0 0 0 0 0 0 0 -0 -0 -1 -1 -1 -1 -1 -1 -1 -1 -1 -1 -2
8 7 7 7 6 6 6 5 5 5 5 5 4 4 4 4 4 4 4 5 5 5 5 5 5 5 5 4 4 4 3 3 3 3 2 2 2 1 1 1 1 1 1 1 0 0 0 0 0 0 0 0 0 -0 -0 -0 -0 -0 -1 -1 -1 -1 -1 -1 -1 -1 -1 -2 -2
8 7 7 7 6 6 6 5 5 5 5 4 4 4 4 4 4 4 4 5 5 5 5 5 5 5 4 4 4 3 3 3 3 2 2 2 1 1 1 1 1 1 1 1 0 0 0 0 0 0 -0 -0 -0 -0 -0 -0 -0 -1 -1 -1 -1 -1 -1 -1 -1 -1 -1 -2 -2
8 7 7 7 6 6 6 5 5 5 5 4 4 4 4 4 4 4 4 5 5 5 5 5 5 4 4 4 3 3 3 3 2 2 2 2 2 1 1 1 1 1 1 1 0 0 0 -0 -0 -0 -0 -0 -0 -0 -0 -0 -1 -1 -1 -1 -1 -1 -1 -1 -1 -2 -2 -2 -2
7 7 7 7 6 6 6 5 5 5 5 4 4 4 4 4 4 4 4 5 5 5 5 5 4 4 4 4 3 3 3 3 2 2 2 2 2 1 1 1 1 1 1 0 0 0 0 -0 -0 -0 -0 -0 -0 -0 -0 -1 -1 -1 -1 -1 -2 -2 -2 -2 -2 -2 -2 -2 -2
7 7 7 6 6 6 5 5 5 5 4 4 4 4 4 4 4 4 4 5 5 5 5 4 4 4 3 3 3 3 2 2 2 2 2 2 2 1 1 1 1 1 1 0 0 0 -0 -0 -0 -0 -0 -0 -0 -0 -1 -1 -1 -1 -2 -2 -2 -2 -2 -2 -2 -2 -2 -2 -2
7 7 6 6 6 5 5 5 5 5 4 4 4 4 4 4 4 4 4 5 5 4 4 3 3 3 3 3 3 2 2 2 2 2 2 2 1 1 1 1 1 1 1 0 0 0 0 -0 -0 -0 -0 -0 -0 -0 -1 -1 -1 -2 -2 -2 -2 -2 -2 -2 -2 -2 -2 -2 -2
6 6 6 6 5 5 5 5 5 4 4 4 4 4 4 4 4 4 4 4 4 4 3 3 2 2 2 2 2 2 2 2 2 2 2 1 1 1 1 1 1 1 1 1 0 0 0 0 0 0 -0 -0 -0 -1 -1 -1 -2 -2 -2 -2 -2 -2 -2 -2 -2 -2 -2 -2 -2
6 6 5 5 5 5 5 4 4 4 4 4 4 4 4 4 4 4 4 4 3 3 3 2 2 2 2 2 2 2 2 2 2 2 1 1 1 1 0 0 0 0 0 0 0 0 0 0 0 0 0 -0 -0 -1 -1 -1 -2 -2 -2 -2 -2 -2 -2 -2 -2 -2 -2 -2 -2
Height
1526 1526 1526 1527 1528 1529 1530 1531 1531 1531 1532 1533 1534 1535 1535 1535 1535 1535 1535 1535 1536 1538 1538 1539 1540 1541 1542 1543 1543 1544 1545 1546 1546 1547 1547 1548 1548 1548 1549 1549 1549 1549 1549 1549 1549 1549 1550 1550 1551 1551 1551 1552 1552 1551 1551 1551 1551 1550 1550 1550 1550 1550 1550 1549 1549 1549 1549 1549 1549
1525 1524 1524 1525 1526 1527 1528 1529 1529 1529 1530 1531 1533 1534 1534 1534 1534 1534 1534 1534 1535 1536 1537 1538 1539 1540 1541 1542 1543 1543 1544 1545 1545 1546 1546 1547 1547 1548 1548 1548 1548 1548 1548 1548 1548 1548 1549 1549 1550 1550 1550 1550 1551 1550 1550 1549 1549 1549 1549 1550 1549 1549 1549 1548 1548 1548 1548 1548 1548
1523 1523 1523 1523 1524 1525 1526 1526 1527 1527 1528 1530 1532 1533 1533 1533 1533 1533 1533 1534 1535 1536 1537 1537 1538 1539 1540 1541 1542 1543 1543 1544 1544 1545 1546 1546 1547 1547 1547 1547 1547 1547 1547 1548 1548 1548 1548 1549 1549 1549 1549 1549 1549 1549 1549 1548 1548 1548 1549 1549 1549 1549 1548 1548 1548 1548 1548 1548 1548
1521 1521 1521 1521 1522 1523 1524 1524 1525 1526 1527 1528 1531 1532 1532 1531 1531 1532 1533 1533 1534 1535 1536 1537 1538 1538 1539 1540 1541 1542 1543 1543 1544 1544 1545 1545 1546 1546 1546 1546 1546 1546 1546 1547 1547 1547 1548 1548 1548 1548 1548 1548 1549 1548 1548 1548 1547 1548 1548 1548 1548 1548 1548 1547 1547 1547 1547 1547 1547
1519 1519 1519 1520 1520 1521 1522 1523 1524 1525 1526 1528 1529 1530 1530 1530 1530 1531 1532 1533 1533 1534 1535 1536 1537 1537 1538 1539 1540 1541 1542 1542 1543 1543 1544 1545 1545 1545 1545 1545 1546 1546 1546 1546 1546 1547 1547 1548 1548 1547 1548 1548 1548 1548 1548 1547 1547 1547 1547 1547 1547 1547 1546 1546 1546 1546 1546 1545 1545
1518 1518 1518 1518 1519 1520 1521 1522 1523 1524 1525 1526 1528 1528 1528 1528 1528 1529 1530 1531 1532 1533 1534 1535 1536 1536 1537 1538 1539 1540 1540 1541 1542 1543 1543 1544 1544 1544 1545 1545 1545 1545 1545 1545 1545 1546 1546 1547 1547 1547 1547 1547 1547 1547 1547 1547 1546 1546 1546 1546 1546 1545 1545 1545 1545 1544 1544 1544 1544
1516 1517 1517 1517 1518 1518 1520 1521 1522 1523 1523 1525 1526 1526 1526 1526 1527 1528 1529 1530 1531 1532 1533 1533 1534 1535 1535 1536 1537 1538 1539 1540 1540 1541 1542 1543 1543 1543 1544 1544 1544 1545 1544 1544 1544 1545 1545 1545 1546 1546 1546 1546 1546 1546 1546 1546 1545 1545 1545 1545 1545 1544 1544 1543 1543 1543 1543 1543 1543
1515 1515 1516 1516 1516 1517 1518 1519 1520 1521 1522 1523 1524 1525 1525 1525 1526 1527 1528 1529 1530 1530 1531 1532 1533 1533 1534 1535 1536 1537 1537 1538 1539 1540 1541 1541 1542 1542 1543 1543 1544 1544 1544 1544 1544 1544 1544 1544 1544 1545 1545 1545 1544 1544 1544 1544 1544 1544 1544 1544 1544 1543 1543 1542 1541 1541 1541 1541 1541
1514 1514 1515 1515 1515 1516 1517 1518 1519 1520 1520 1522 1523 1523 1523 1524 1525 1526 1527 1528 1528 1529 1529 1530 1531 1532 1533 1533 1534 1535 1536 1537 1538 1539 1539 1540 1541 1541 1542 1542 1543 1543 1543 1543 1543 1543 1543 1543 1543 1544 1544 1543 1543 1543 1543 1543 1543 1543 1543 1543 1543 1543 1542 1541 1540 1540 1540 1540 1540
1513 1513 1513 1514 1514 1515 1516 1517 1518 1518 1519 1520 1521 1521 1522 1523 1524 1525 1525 1526 1527 1528 1528 1529 1530 1531 1531 1533 1533 1534 1535 1536 1537 1538 1538 1539 1539 1540 1540 1541 1541 1542 1542 1542 1542 1542 1542 1543 1543 1543 1543 1542 1542 1542 1542 1542 1541 1541 1541 1541 1541 1541 1541 1540 1539 1539 1539 1539 1538
1511 1512 1512 1513 1513 1513 1515 1516 1517 1518 1518 1519 1520 1520 1521 1522 1523 1523 1524 1525 1525 1526 1527 1528 1528 1529 1530 1532 1533 1534 1534 1535 1536 1537 1537 1538 1538 1539 1539 1540 1540 1541 1541 1541 1541 1541 1542 1542 1542 1542 1541 1541 1541 1541 1541 1541 1540 1540 1540 1540 1540 1540 1540 1539 1539 1538 1538 1538 1538
1510 1511 1511 1512 1512 1513 1514 1515 1516 1516 1517 1518 1518 1519 1520 1521 1522 1522 1523 1523 1524 1525 1526 1527 1528 1529 1530 1531 1532 1533 1534 1534 1535 1535 1536 1537 1537 1538 1538 1539 1539 1539 1540 1540 1540 1540 1541 1541 1541 1540 1540 1540 1540 1540 1540 1540 1539 1539 1539 1538 1538 1538 1538 1538 1538 1538 1537 1537 1537
1509 1510 1510 1511 1512 1512 1513 1514 1515 1515 1516 1517 1518 1518 1518 1519 1520 1521 1522 1522 1523 1524 1525 1526 1527 1528 1529 1530 1531 1532 1533 1533 1533 1534 1535 1535 1536 1537 1537 1538 1538 1538 1538 1539 1539 1539 1539 1539 1539 1539 1539 1539 1539 1539 1539 1538 1538 1538 1538 1538 1537 1537 1537 1537 1537 1536 1536 1536 1535
1508 1509 1509 1510 1511 1512 1512 1513 1513 1514 1515 1516 1517 1517 1517 1518 1519 1520 1521 1521 1523 1523 1524 1525 1526 1527 1528 1529 1530 1530 1531 1531 1532 1533 1533 1534 1535 1535 1536 1536 1537 1537 1537 1537 1537 1537 1537 1538 1538 1538 1538 1538 1538 1538 1538 1537 1537 1537 1537 1537 1536 1536 1536 1535 1535 1535 1534 1534 1533
1507 1508 1509 1509 1510 1511 1511 1512 1512 1513 1514 1515 1515 1516 1516 1517 1518 1518 1519 1520 1522 1523 1523 1524 1525 1526 1527 1528 1528 1529 1529 1530 1530 1531 1532 1533 1533 1534 1534 1535 1535 1536 1536 1536 1536 1535 1536 1536 1537 1537 1537 1537 1537 1537 1536 1536 1536 1535 1535 1535 1535 1534 1534 1533 1533 1533 1533 1532 1532
1506 1507 1508 1508 1509 1509 1510 1511 1511 1512 1513 1514 1514 1514 1514 1515 1516 1517 1518 1519 1520 1521 1522 1523 1524 1525 1526 1526 1526 1527 1527 1528 1529 1530 1530 1531 1532 1532 1533 1533 1534 1534 1535 1535 1534 1534 1534 1535 1535 1535 1536 1535 1535 1535 1535 1535 1535 1534 1533 1533 1533 1533 1533 1532 1532 1531 1531 1531 1530
1505 1506 1507 1507 1508 1508 1509 1509 1510 1511 1512 1512 1513 1513 1513 1514 1515 1516 1517 1518 1519 1520 1521 1522 1523 1524 1524 1524 1524 1525 1526 1527 1528 1528 1529 1530 1530 1531 1532 1532 1533 1533 1533 1533 1533 1534 1533 1533 1533 1533 1534 1534 1534 1534 1534 1534 1533 1533 1532 1532 1531 1531 1531 1531 1530 1530 1529 1529 1529
1504 1505 1505 1506 1506 1507 1508 1508 1508 1509 1510 1511 1511 1512 1512 1513 1514 1515 1516 1517 1518 1519 1521 1522 1522 1522 1522 1522 1523 1524 1525 1525 1526 1527 1528 1528 1529 1530 1530 1531 1531 1531 1532 1532 1533 1533 1533 1533 1533 1532 1532 1532 1532 1532 1532 1532 1532 1531 1531 1530 1530 1529 1529 1529 1529 1528 1528 1528 1528
1503 1503 1504 1504 1505 1505 1506 1506 1507 1508 1509 1509 1510 1511 1512 1512 1513 1514 1515 1516 1517 1518 1519 1520 1521 1521 1521 1521 1522 1522 1523 1524 1525 1526 1527 1528 1528 1529 1529 1529 1529 1530 1530 1531 1532 1532 1532 1532 1531 1531 1531 1530 1530 1530 1530 1530 1530 1529 1529 1529 1528 1528 1527 1527 1527 1527 1526 1526 1526
1502 1502 1503 1503 1503 1504 1504 1505 1505 1506 1507 1508 1509 1510 1511 1511 1512 1512 1513 1514 1515 1516 1517 1518 1518 1519 1519 1520 1520 1521 1521 1522 1523 1524 1526 1527 1527 1528 1528 1528 1528 1529 1529 1530 1530 1530 1531 1530 1530 1530 1529 1529 1528 1528 1528 1528 1528 1528 1527 1527 1527 1526 1526 1525 1525 1525 1524 1524 1524
1500 1501 1501 1501 1502 1503 1503 1503 1504 1504 1506 1507 1508 1510 1511 1511 1511 1511 1512 1513 1513 1514 1515 1516 1516 1517 1518 1518 1518 1518 1519 1520 1522 1524 1525 1526 1527 1527 1527 1527 1528 1528 1528 1528 1529 1529 1529 1529 1529 1528 1528 1527 1527 1526 1526 1526 1526 1526 1525 1525 1525 1524 1524 1523 1523 1523 1523 1522 1522
1499 1499 1499 1499 1500 1501 1501 1501 1502 1503 1504 1506 1508 1509 1511 1510 1510 1510 1511 1511 1512 1512 1513 1514 1515 1515 1516 1516 1516 1516 1518 1519 1521 1523 1524 1525 1525 1525 1525 1526 1526 1527 1527 1527 1527 1528 1527 1527 1527 1527 1526 1526 1525 1525 1524 1524 1524 1524 1524 1523 1523 1523 1522 1522 1522 1521 1521 1520 1520
1496 1496 1496 1496 1497 1498 1498 1498 1500 1502 1503 1505 1507 1508 1510 1509 1509 1509 1509 1510 1510 1511 1512 1513 1514 1514 1514 1514 1515 1516 1517 1519 1521 1522 1523 1524 1524 1524 1524 1524 1524 1525 1525 1526 1526 1526 1526 1525 1525 1525 1524 1524 1523 1523 1523 1523 1523 1523 1522 1522 1522 1521 1521 1521 1520 1519 1519 1518 1518
1492 1493 1493 1494 1495 1495 1496 1498 1499 1501 1503 1505 1506 1507 1508 1508 1508 1508 1508 1508 1509 1510 1511 1512 1513 1513 1513 1514 1515 1516 1517 1519 1520 1522 1522 1523 1523 1523 1523 1523 1523 1523 1523 1523 1523 1523 1523 1523 1523 1523 1523 1523 1522 1522 1522 1521 1521 1521 1520 1520 1520 1520 1519 1519 1519 1518 1517 1517 1516
1491 1491 1492 1493 1494 1495 1496 1497 1498 1500 1502 1504 1505 1505 1506 1506 1506 1506 1507 1507 1508 1509 1510 1510 1511 1511 1512 1513 1515 1516 1517 1519 1520 1521 1521 1521 1521 1521 1521 1521 1521 1521 1521 1522 1522 1522 1522 1522 1522 1521 1521 1521 1521 1521 1520 1520 1519 1519 1518 1518 1518 1518 1518 1517 1517 1517 1516 1515 1514
1490 1491 1492 1493 1493 1494 1495 1496 1497 1498 1500 1502 1503 1503 1504 1504 1504 1504 1504 1506 1507 1508 1508 1509 1509 1509 1511 1513 1514 1516 1517 1518 1519 1519 1519 1519 1519 1519 1519 1520 1519 1519 1519 1519 1520 1520 1520 1520 1520 1520 1520 1519 1519 1519 1519 1518 1518 1517 1517 1516 1516 1516 1515 1515 1515 1515 1514 1513 1513
1489 1489 1490 1491 1492 1493 1493 1494 1495 1496 1498 1499 1500 1501 1501 1502 1502 1502 1503 1504 1505 1506 1507 1507 1507 1508 1510 1512 1514 1515 1516 1517 1518 1518 1518 1518 1518 1518 1518 1518 1518 1518 1518 1518 1518 1518 1518 1518 1518 1518 1518 1518 1517 1517 1517 1517 1516 1516 1515 1514 1514 1513 1513 1513 1513 1513 1512 1512 1511
1487 1488 1489 1490 1491 1491 1492 1492 1493 1493 1494 1496 1497 1498 1499 1500 1500 1500 1501 1503 1503 1504 1504 1505 1506 1508 1510 1512 1513 1514 1515 1516 1516 1516 1516 1516 1517 1517 1517 1517 1517 1516 1516 1516 1516 1516 1516 1516 1516 1516 1516 1516 1515 1515 1515 1515 1514 1514 1514 1513 1512 1512 1511 1511 1510 1510 1510 1509 1509
1486 1487 1488 1488 1488 1489 1489 1490 1490 1491 1492 1493 1495 1496 1497 1498 1498 1499 1500 1501 1501 1502 1503 1504 1506 1508 1509 1511 1512 1513 1514 1514 1514 1514 1515 1515 1515 1515 1515 1515 1515 1515 1515 1514 1514 1514 1514 1514 1514 1514 1514 1514 1513 1513 1513 1513 1513 1513 1512 1512 1511 1510 1510 1509 1508 1508 1508 1507 1507
1485 1486 1487 1487 1487 1488 1488 1488 1489 1490 1491 1492 1493 1494 1495 1496 1497 1498 1499 1499 1499 1500 1502 1504 1506 1507 1509 1510 1511 1512 1512 1512 1513 1513 1513 1513 1513 1514 1514 1514 1514 1513 1513 1513 1513 1513 1513 1512 1512 1512 1512 1512 1512 1511 1511 1511 1511 1511 1511 1510 1509 1509 1508 1508 1507 1506 1506 1506 1505
1485 1485 1486 1487 1487 1487 1488 1488 1489 1489 1491 1492 1493 1493 1494 1495 1496 1497 1498 1498 1498 1500 1502 1504 1505 1507 1508 1509 1510 1510 1511 1511 1511 1512 1512 1512 1512 1512 1512 1512 1512 1512 1512 1511 1511 1510 1510 1510 1510 1510 1510 1510 1510 1509 1509 1509 1509 1509 1509 1508 1508 1507 1507 1506 1505 1505 1504 1504 1503
1485 1485 1486 1486 1486 1487 1487 1488 1488 1489 1490 1491 1492 1493 1494 1495 1495 1496 1497 1497 1498 1500 1502 1503 1504 1506 1507 1508 1508 1509 1509 1509 1510 1510 1510 1511 1511 1511 1511 1510 1510 1510 1510 1509 1509 1508 1508 1508 1508 1508 1508 1508 1508 1507 1507 1507 1507 1507 1506 1506 1506 1505 1505 1504 1503 1503 1502 1502 1502
1484 1485 1485 1485 1486 1486 1487 1488 1488 1489 1489 1490 1491 1492 1493 1494 1495 1495 1496 1497 1498 1500 1501 1502 1504 1505 1506 1507 1507 1508 1508 1508 1508 1509 1509 1509 1509 1509 1509 1509 1508 1508 1508 1508 1507 1507 1507 1506 1506 1506 1506 1506 1506 1505 1505 1504 1504 1504 1504 1503 1503 1503 1503 1502 1502 1501 1500 1500 1499
1483 1484 1484 1485 1486 1486 1487 1488 1488 1488 1489 1490 1491 1492 1492 1493 1494 1495 1496 1497 1498 1499 1501 1502 1503 1504 1505 1505 1506 1506 1507 1507 1507 1508 1508 1508 1508 1508 1507 1507 1507 1507 1506 1506 1505 1505 1505 1505 1505 1504 1504 1504 1504 1503 1503 1503 1502 1502 1501 1501 1501 1501 1500 1500 1499 1499 1498 1498 1498
1483 1484 1484 1485 1485 1486 1487 1487 1488 1488 1488 1489 1490 1491 1492 1493 1493 1494 1495 1497 1498 1499 1500 1501 1502 1503 1503 1504 1504 1505 1505 1506 1506 1506 1506 1506 1506 1506 1506 1505 1505 1505 1505 1504 1504 1504 1503 1503 1503 1503 1503 1502 1502 1501 1501 1500 1500 1499 1499 1499 1498 1498 1498 1498 1497 1497 1496 1496 1495
1483 1483 1484 1484 1485 1486 1486 1487 1487 1487 1488 1488 1489 1490 1492 1493 1493 1494 1495 1497 1498 1499 1500 1500 1501 1502 1502 1503 1503 1503 1504 1504 1505 1505 1505 1505 1505 1504 1504 1504 1504 1503 1503 1503 1503 1502 1502 1502 1502 1501 1501 1500 1500 1499 1499 1498 1498 1497 1497 1497 1496 1496 1495 1495 1495 1494 1494 1493 1493
1482 1483 1483 1484 1485 1485 1486 1486 1486 1486 1487 1488 1489 1490 1492 1493 1494 1494 1495 1496 1497 1498 1499 1499 1500 1501 1501 1501 1502 1502 1503 1503 1503 1503 1503 1503 1503 1503 1503 1502 1502 1502 1502 1501 1501 1501 1500 1500 1500 1500 1499 1498 1498 1497 1497 1496 1495 1495 1494 1494 1493 1493 1493 1493 1493 1492 1492 1491 1490
1482 1482 1483 1483 1484 1484 1485 1485 1485 1486 1487 1488 1489 1490 1492 1493 1494 1494 1495 1496 1497 1498 1498 1498 1499 1499 1500 1500 1501 1501 1502 1502 1502 1502 1502 1502 1502 1501 1501 1501 1500 1500 1500 1500 1499 1499 1498 1498 1498 1498 1497 1497 1496 1495 1495 1494 1493 1493 1492 1492 1491 1491 1491 1490 1490 1489 1489 1488 1488
1481 1481 1482 1483 1483 1483 1484 1484 1485 1486 1487 1488 1489 1491 1492 1493 1493 1493 1494 1495 1496 1497 1497 1498 1498 1499 1499 1499 1500 1500 1500 1500 1500 1500 1500 1500 1500 1499 1499 1499 1498 1498 1498 1498 1498 1497 1497 1497 1496 1496 1495 1495 1494 1493 1493 1492 1492 1491 1490 1490 1489 1489 1488 1488 1488 1487 1486 1485 1485
1480 1480 1481 1482 1482 1483 1483 1484 1485 1486 1487 1488 1489 1491 1492 1493 1493 1493 1493 1494 1495 1496 1497 1497 1498 1498 1498 1498 1498 1499 1499 1499 1499 1499 1499 1498 1498 1498 1497 1497 1496 1496 1496 1496 1496 1495 1495 1494 1494 1494 1493 1493 1492 1491 1491 1490 1490 1489 1488 1488 1488 1487 1486 1486 1485 1484 1483 1483 1482
1479 1479 1480 1481 1482 1483 1483 1484 1485 1486 1487 1488 1490 1491 1491 1492 1492 1492 1493 1494 1495 1496 1496 1497 1497 1496 1496 1497 1497 1497 1498 1498 1498 1498 1497 1497 1497 1496 1495 1495 1495 1494 1494 1494 1493 1493 1493 1492 1492 1492 1491 1491 1490 1489 1489 1488 1488 1487 1486 1486 1485 1485 1484 1483 1483 1482 1481 1480 1480
Wind_Speed
22 24 26 27 27 25 23 20 20 20 21 20 20 20 21 22 23 24 25 26 26 26 26 26 26 26 25 24 23 22 21 20 18 17 15 12 11 9 9 8 7 5 4 3 2 1 1 3 4 5 5 6 7 7 7 6 4 3 3 4 5 5 4 4 4 4 4 4 4
23 25 27 28 28 27 25 24 24 23 22 20 19 20 21 22 23 24 25 26 25 25 25 25 26 26 25 24 23 22 21 20 18 17 15 13 11 10 9 8 7 6 5 4 3 2 3 5 6 6 6 6 7 7 8 7 4 3 3 5 6 5 5 4 4 4 4 4 5
24 25 27 28 28 28 28 27 27 25 22 20 20 20 21 22 24 25 25 25 25 24 24 24 24 25 25 24 23 22 21 20 18 17 15 13 12 11 10 9 8 7 6 4 3 4 5 7 7 7 7 6 6 7 7 7 5 3 4 6 6 6 5 4 4 4 5 5 5
24 25 26 28 28 29 29 28 27 24 21 20 20 20 21 23 24 25 25 25 24 23 23 23 23 23 24 24 23 22 21 20 18 17 15 14 13 12 10 9 8 8 7 5 5 6 7 8 8 7 7 6 6 6 7 6 5 4 4 6 6 6 6 5 5 5 5 5 5
25 26 27 28 28 28 29 28 26 23 21 20 20 21 22 25 25 25 24 24 23 23 23 22 22 22 23 24 23 22 21 20 19 17 15 14 13 12 11 10 9 9 8 7 6 8 9 9 9 7 6 5 6 7 7 7 6 5 6 6 7 7 7 6 6 5 6 6 6
26 26 27 28 28 28 27 26 24 22 21 21 21 23 24 25 25 25 24 24 23 22 22 21 21 22 23 23 23 22 21 20 19 17 16 14 13 13 11 10 10 10 10 8 8 8 9 9 8 7 7 6 6 7 8 8 7 7 7 7 7 7 8 7 6 6 6 7 7
26 27 27 27 28 28 27 26 24 23 21 21 22 24 26 26 25 25 24 23 22 22 22 22 22 22 23 23 23 23 22 21 19 17 16 15 14 13 12 11 11 11 11 10 10 9 9 8 8 8 8 8 7 8 8 9 8 8 7 7 7 8 8 8 8 8 8 8 8
26 26 26 27 28 28 28 27 25 23 22 21 23 25 26 26 25 24 23 22 22 22 22 23 23 24 24 24 24 23 23 21 19 18 16 16 15 14 13 12 12 12 12 12 11 10 9 7 7 8 8 8 8 8 9 10 9 9 8 8 8 9 10 11 12 11 10 9 9
25 25 26 27 28 28 27 26 25 24 22 22 23 25 26 25 24 23 23 22 22 22 23 23 24 24 24 24 24 24 23 21 19 18 17 16 16 15 14 13 13 13 14 13 12 11 9 8 7 8 9 9 8 9 9 10 10 10 10 9 9 9 10 11 11 11 10 9 9
24 25 25 26 27 27 26 25 24 23 23 23 23 24 25 24 23 23 23 22 22 23 23 23 24 24 24 24 24 23 22 20 19 18 17 17 17 16 15 14 13 14 14 14 12 11 9 9 9 9 9 9 9 9 10 11 11 11 11 10 9 10 10 10 10 10 9 9 9
24 24 25 26 26 26 24 23 22 23 23 23 23 24 24 24 23 23 23 23 23 23 23 23 24 24 24 23 23 22 21 20 19 18 18 18 17 17 15 14 13 14 14 13 11 10 10 10 10 10 10 10 10 10 11 11 12 12 12 11 10 10 11 11 11 10 10 10 10
23 23 24 24 24 23 22 22 22 23 23 23 22 22 23 24 24 24 24 24 24 23 23 23 23 23 23 22 22 22 21 20 19 19 19 18 18 17 15 14 13 13 13 13 11 11 11 11 11 11 11 11 11 11 11 12 12 12 12 12 11 11 11 11 11 11 10 10 11
23 22 22 22 22 22 22 22 22 23 23 22 21 22 22 23 24 24 24 24 23 23 22 22 22 22 22 22 22 22 21 21 20 20 19 19 18 16 15 13 12 12 12 12 12 12 11 11 11 11 11 12 12 12 12 13 13 13 13 12 12 12 12 12 12 12 12 12 12
22 21 21 21 22 22 22 23 22 22 22 21 21 21 23 24 24 24 24 23 22 22 22 22 21 21 22 22 22 23 22 22 21 20 20 19 18 16 14 13 12 11 11 13 13 13 13 12 12 12 12 12 13 13 13 14 14 14 13 13 13 13 13 13 13 13 13 14 14
21 21 21 21 22 22 22 22 22 21 21 21 21 22 23 24 24 24 23 22 22 21 22 21 21 21 21 22 23 24 24 23 22 20 19 19 18 16 14 12 11 11 12 13 15 15 14 12 12 12 12 13 13 13 14 14 15 15 15 14 14 14 14 14 14 14 14 15 15
20 20 21 21 22 22 22 22 21 20 20 21 22 23 23 23 23 23 22 22 21 21 21 20 20 20 22 23 25 25 25 23 22 20 20 19 18 16 14 12 12 12 13 14 15 15 14 13 13 13 13 13 13 13 14 15 15 16 16 16 15 15 15 15 15 15 15 16 16
20 20 21 21 22 22 21 21 20 20 21 22 23 23 24 23 22 22 21 21 20 20 19 19 20 21 24 25 26 26 25 24 22 21 20 20 19 16 14 13 14 14 14 14 14 15 15 15 14 14 14 14 14 14 14 15 16 16 17 17 17 17 16 16 16 16 16 16 16
20 20 21 21 21 21 21 21 21 22 22 23 24 24 23 22 21 20 19 19 19 19 18 19 21 24 26 27 27 26 25 24 22 21 20 20 18 16 15 15 15 14 13 13 14 15 15 15 15 15 15 15 15 15 16 16 16 17 18 18 18 18 17 17 16 16 16 17 17
20 20 20 21 21 22 23 23 23 23 23 23 23 22 21 20 19 18 18 18 18 18 18 19 22 25 27 28 27 26 25 24 22 21 21 20 18 16 15 15 15 13 13 13 14 15 15 15 15 15 15 16 16 17 17 17 17 17 18 18 18 18 18 17 17 17 17 17 17
20 20 20 21 22 23 24 24 24 24 24 23 21 20 19 19 18 18 18 19 19 19 20 22 24 27 28 28 27 26 25 24 22 21 21 20 17 16 15 14 13 13 13 14 15 15 15 15 15 15 16 17 17 18 18 17 17 18 18 18 18 18 18 18 17 17 17 18 18
20 20 20 21 22 23 23 24 26 26 24 21 18 18 18 18 19 19 19 19 20 20 21 24 26 27 28 28 28 27 25 23 21 20 20 18 16 15 14 12 12 13 14 14 14 15 15 15 15 15 16 17 18 19 19 18 18 18 18 18 18 18 18 18 18 18 18 18 18
20 19 20 22 22 23 25 26 27 25 22 19 18 17 17 18 19 20 20 20 20 21 23 25 27 27 28 29 29 27 24 21 19 19 18 17 15 14 13 12 13 14 14 14 14 14 15 15 16 16 17 18 19 20 20 19 18 18 17 18 18 18 18 18 18 18 18 19 19
21 23 24 26 27 28 29 29 26 22 19 18 18 18 18 19 20 20 20 21 21 22 24 26 27 28 28 29 28 25 21 18 17 18 17 15 14 14 13 13 13 14 15 15 15 15 16 16 16 17 17 18 19 19 19 18 18 18 18 18 18 18 18 18 18 18 19 19 20
26 28 29 30 30 31 30 27 22 18 17 17 18 18 19 19 19 19 19 21 22 23 25 27 28 29 29 28 25 20 17 16 17 17 16 14 14 13 13 14 14 15 16 17 18 18 18 17 17 17 17 18 18 17 17 17 18 18 18 18 18 18 18 18 19 19 19 19 20
29 30 30 30 30 29 28 24 20 18 18 20 20 19 19 19 18 18 19 21 22 24 26 28 29 30 29 26 21 17 16 17 17 16 14 13 13 13 13 13 14 15 17 18 18 18 18 17 17 17 17 16 16 16 16 17 18 18 19 19 19 19 19 19 19 19 19 20 20
29 30 30 29 28 27 25 23 21 21 22 24 22 20 19 19 19 20 21 22 23 25 27 29 31 30 28 23 19 17 17 18 16 15 13 13 12 12 12 13 14 15 17 17 18 17 17 17 17 17 17 17 17 16 16 17 18 19 19 20 20 19 19 19 19 20 20 20 20
29 29 29 28 27 26 25 24 24 25 25 26 26 25 23 21 21 22 23 23 25 27 29 31 31 29 24 20 17 17 18 17 15 14 13 12 12 12 12 13 14 15 17 17 17 17 17 17 17 18 18 18 18 18 17 17 18 18 19 20 20 20 20 20 20 20 21 21 21
28 28 28 28 27 26 26 26 27 27 27 27 26 26 25 24 24 24 24 24 26 28 31 31 29 25 21 18 18 18 18 16 14 13 12 12 12 12 12 13 14 16 17 18 18 17 17 18 18 19 19 19 19 19 19 19 18 18 19 20 20 21 21 21 21 21 21 21 21
25 26 26 26 25 24 23 23 22 22 23 23 23 23 23 23 24 24 24 25 28 30 31 29 26 22 19 19 19 19 17 15 14 13 12 12 12 12 13 13 14 16 17 18 19 19 19 19 19 19 19 19 20 20 20 19 18 18 19 19 20 20 20 21 21 21 21 21 21
20 21 20 19 18 17 17 17 17 17 18 18 19 20 21 23 24 24 25 26 28 29 28 26 22 20 20 20 20 18 16 15 14 13 12 11 11 12 13 14 15 16 18 19 19 20 20 20 20 20 19 19 19 20 20 20 19 19 19 19 20 20 21 21 21 21 21 21 21
16 15 15 14 14 14 15 15 16 16 16 17 18 19 21 22 23 24 26 27 27 27 25 23 21 21 21 21 19 17 16 15 14 13 12 11 12 12 14 15 16 17 18 19 20 21 21 21 21 20 20 19 20 20 21 21 20 20 20 20 20 21 21 21 22 22 22 22 21
13 12 12 13 14 14 15 15 15 15 15 15 17 19 21 22 24 26 27 27 26 25 24 23 22 22 22 20 18 16 15 14 14 13 12 12 13 14 15 16 17 18 18 19 20 21 22 22 22 21 20 20 20 21 22 22 22 22 21 21 21 21 22 22 22 22 22 22 22
12 12 12 13 13 13 14 14 14 14 14 15 17 19 22 24 25 27 27 27 27 26 25 23 23 22 21 19 17 16 15 15 14 14 13 13 14 15 17 18 18 19 19 19 20 21 22 22 22 22 21 21 21 22 23 23 24 23 23 22 22 22 22 22 22 22 22 22 23
12 12 12 12 12 12 13 13 14 15 16 17 19 21 23 25 26 27 28 27 27 25 24 23 22 21 19 17 16 15 15 15 15 15 15 15 16 17 18 19 19 19 18 19 20 21 22 22 22 22 22 22 23 23 24 24 25 24 24 23 23 23 23 23 23 23 23 23 23
11 11 11 11 12 12 13 13 15 16 18 19 21 23 24 25 26 27 27 26 25 24 23 22 21 19 17 16 15 15 16 16 16 16 16 16 17 19 20 20 19 19 19 19 20 21 21 22 23 23 24 24 25 25 25 25 25 25 25 24 24 24 24 24 24 24 24 24 24
11 11 11 12 12 13 14 15 16 17 19 20 22 23 24 24 24 24 25 24 23 22 22 21 19 18 16 16 15 16 16 16 16 16 17 18 19 20 21 21 20 19 19 19 20 21 21 22 23 24 25 26 26 27 27 27 26 26 25 25 25 25 25 24 24 24 25 25 25
11 11 11 12 13 13 15 16 17 18 19 20 21 22 22 21 21 21 22 22 21 21 20 19 18 16 16 15 16 16 16 16 17 17 18 19 20 21 21 21 20 19 19 19 20 20 21 22 23 24 26 27 28 28 28 28 27 26 25 25 25 25 25 25 25 25 25 26 26
10 11 12 12 13 15 15 16 17 17 18 18 19 19 19 19 19 20 21 20 20 19 18 17 16 15 15 15 15 16 16 16 17 18 19 21 22 22 21 21 20 19 18 19 20 20 21 22 23 25 26 27 28 28 28 28 27 26 24 24 24 25 24 24 24 25 26 26 27
10 11 12 13 15 16 16 16 16 16 16 16 17 17 18 17 17 19 19 19 17 16 15 14 13 13 14 15 16 16 17 17 18 19 21 22 22 22 21 21 20 20 19 19 20 21 22 23 24 25 27 28 28 29 29 28 26 25 25 25 25 25 25 24 24 25 26 27 27
11 12 14 15 16 16 15 15 14 14 14 15 15 16 16 16 16 17 18 17 15 13 11 10 10 12 14 17 17 17 17 18 19 20 21 22 21 21 21 21 21 21 21 21 22 23 24 24 25 26 27 28 28 29 29 28 26 25 25 25 25 25 25 25 25 25 26 26 27
13 13 14 15 15 14 13 12 12 12 13 14 15 15 15 15 15 15 15 14 12 11 10 11 12 14 17 18 18 18 18 19 20 21 21 21 20 19 19 20 20 21 21 21 22 24 25 25 26 26 27 27 28 28 28 28 26 26 26 26 26 26 26 26 25 25 26 27 27
Wind_Direction
192 196 202 206 205 200 194 189 189 190 192 191 191 193 195 197 199 203 208 213 214 213 213 216 218 219 221 223 224 224 223 223 222 222 221 218 216 212 210 214 222 235 251 265 282 277 186 178 187 194 198 201 205 216 231 251 264 258 232 213 210 213 218 220 221 226 233 240 248
193 199 206 210 209 204 199 196 197 199 200 198 196 196 197 199 202 206 211 215 216 214 214 217 220 221 221 223 224 222 221 220 220 219 217 214 213 212 214 220 226 236 246 250 244 214 190 189 195 202 208 212 215 225 241 263 281 264 219 212 212 216 222 225 228 231 236 242 248
194 200 207 212 211 208 206 205 206 208 208 203 198 197 199 202 205 209 212 216 217 216 216 218 220 221 221 222 221 219 218 218 218 218 216 213 213 214 218 223 227 232 236 233 215 196 192 197 204 211 216 219 224 229 240 263 285 268 214 212 214 218 223 227 230 232 235 242 249
196 201 207 213 215 214 213 212 213 213 211 203 197 196 200 206 210 212 215 218 218 217 217 218 218 219 220 220 218 216 215 216 218 218 217 215 214 215 219 226 229 229 227 221 202 193 196 203 212 221 227 227 225 222 227 246 263 251 220 216 219 223 227 230 231 232 235 241 249
198 203 209 216 219 220 219 217 216 213 209 202 196 196 202 209 212 214 215 216 216 217 218 218 217 217 218 218 216 214 214 216 219 220 219 218 216 217 222 226 225 223 220 215 203 198 200 208 219 229 234 230 222 219 222 230 236 232 225 222 223 227 230 233 232 234 238 247 254
200 205 211 217 222 223 222 218 215 211 207 202 197 199 205 211 214 215 215 216 217 218 218 216 214 214 215 215 215 215 216 218 220 221 221 219 217 218 219 221 218 216 215 214 210 208 209 213 223 230 233 228 225 221 221 225 227 228 228 229 231 234 235 235 233 237 244 252 258
203 206 211 218 223 225 223 218 214 211 207 203 200 203 209 213 216 217 217 217 216 215 214 212 211 212 214 216 216 217 218 220 221 222 221 218 217 215 215 215 211 210 212 216 217 219 221 221 224 229 233 235 234 230 226 226 227 229 230 233 238 239 238 237 240 246 253 256 256
206 208 211 218 223 226 225 220 215 212 209 204 203 208 213 216 217 218 217 214 212 212 211 210 211 214 218 219 219 219 220 220 221 220 218 216 214 214 214 214 212 211 212 216 220 225 230 229 225 226 231 238 240 235 230 230 233 235 236 236 240 240 241 245 253 259 263 260 255
207 208 211 218 224 227 226 222 217 214 211 206 206 210 215 217 217 216 214 210 210 212 212 211 213 218 221 222 222 221 220 219 219 218 216 213 212 212 214 215 213 212 212 217 222 227 232 233 229 226 229 235 238 236 234 234 238 242 245 244 243 241 240 244 255 263 264 259 253
206 207 210 216 223 227 225 220 217 215 212 208 208 211 215 216 215 214 212 210 211 213 214 215 217 220 222 222 220 219 218 217 218 217 215 213 212 212 214 215 214 212 213 219 223 226 228 231 231 230 231 236 239 239 238 238 240 244 248 252 249 243 240 243 250 255 257 255 254
208 207 209 214 221 224 221 215 211 211 210 208 208 211 214 214 213 212 213 213 213 215 217 219 220 221 220 218 216 215 215 215 216 216 215 212 212 213 215 217 216 214 216 221 224 223 223 227 231 233 236 239 237 236 236 239 240 245 250 254 250 244 241 243 247 249 250 251 253
208 208 208 211 215 216 212 206 204 205 206 206 206 208 211 212 212 213 214 215 216 219 221 222 222 221 218 214 213 212 212 213 216 216 214 212 212 214 216 220 219 218 218 221 223 223 224 229 235 239 241 241 238 236 235 236 238 242 247 248 246 243 242 244 245 245 246 249 251
207 206 205 204 205 204 201 198 198 200 202 202 201 204 208 211 213 214 216 218 221 223 223 224 224 221 217 214 211 211 211 213 216 216 214 213 214 216 220 223 223 220 218 219 221 225 230 236 240 242 242 241 240 238 236 236 237 239 242 244 244 243 244 247 246 247 248 250 251
204 202 200 198 196 194 193 194 195 197 199 198 197 200 206 212 214 216 219 222 225 225 225 225 223 220 216 213 211 211 213 216 218 217 214 213 216 221 225 227 226 222 218 220 227 233 239 243 243 242 242 241 241 240 239 239 239 240 242 244 244 245 246 246 248 249 250 251 254
201 199 197 195 192 190 190 191 193 195 195 194 194 200 208 214 217 219 221 224 226 226 224 223 218 214 211 212 212 214 217 219 219 217 215 216 220 224 227 228 228 228 229 232 239 244 246 245 241 241 242 242 242 242 242 242 243 244 244 245 245 248 249 247 250 252 252 254 258
198 197 195 193 190 188 187 188 190 192 192 191 195 203 211 216 219 221 223 224 224 223 222 220 214 209 207 210 215 218 220 221 220 219 218 219 222 224 227 229 234 241 245 245 245 245 244 244 240 239 241 243 244 244 245 246 246 247 247 249 250 250 251 251 253 254 255 257 259
196 195 193 190 188 186 186 187 189 191 192 193 199 208 216 220 222 223 224 225 224 221 219 217 213 209 209 213 217 220 221 221 222 221 220 219 221 225 231 238 246 253 255 249 241 237 237 239 241 243 244 245 246 246 247 248 248 249 249 251 253 253 253 255 254 255 255 257 257
194 193 190 188 186 185 186 188 192 194 196 198 204 211 218 221 223 224 225 226 225 220 215 213 215 215 215 216 219 220 220 221 222 222 220 219 222 228 240 251 259 261 256 245 236 233 234 236 239 243 247 251 253 253 252 250 250 250 251 252 253 254 255 256 255 254 255 256 256
193 191 188 185 184 186 190 194 197 198 199 202 207 212 216 221 222 223 225 226 226 221 217 219 220 220 219 219 218 218 219 220 222 221 220 220 226 237 251 261 264 258 247 237 233 232 234 236 239 243 248 254 258 260 259 256 253 252 251 251 252 254 256 257 256 255 254 255 255
191 189 186 185 188 192 196 199 201 203 205 208 211 211 213 218 222 225 225 224 226 226 226 225 223 221 219 217 216 216 218 222 224 223 221 224 233 247 259 263 256 244 235 231 230 232 234 238 241 245 249 254 259 261 262 260 257 254 253 253 253 255 257 258 256 255 254 254 253
188 187 186 189 193 196 199 202 205 208 211 212 210 209 210 215 221 225 227 227 230 231 229 225 221 218 216 213 212 214 219 226 228 226 224 229 242 255 261 256 242 232 229 229 230 232 235 239 244 247 250 254 258 261 262 262 260 257 255 254 255 257 259 259 257 255 253 252 251
185 184 186 190 193 196 200 204 208 212 215 214 205 202 206 214 220 226 230 233 235 233 228 223 218 214 211 211 213 218 225 232 230 226 227 236 250 259 258 247 234 228 227 228 231 234 238 242 247 250 253 256 259 262 264 264 262 258 255 255 257 259 260 259 257 254 251 250 251
183 186 191 196 200 205 208 210 211 216 223 222 206 201 206 216 223 228 233 236 235 231 225 219 215 211 209 212 217 224 231 232 225 224 230 244 254 257 252 242 233 228 227 228 231 235 240 246 251 255 257 259 261 263 264 263 259 257 255 256 258 259 260 259 255 252 249 249 251
191 197 203 209 213 216 217 217 218 227 237 237 226 217 216 220 224 228 230 233 232 226 219 213 210 209 211 216 224 231 232 225 221 226 238 250 255 253 247 241 235 232 230 232 235 240 245 252 257 261 262 262 262 262 261 260 257 255 255 256 258 259 258 257 255 252 249 249 251
205 211 217 220 222 223 223 224 231 242 254 258 248 233 221 219 220 222 224 226 226 220 213 208 207 210 215 221 229 232 227 220 223 233 246 253 254 251 246 242 240 239 239 242 246 251 256 261 266 267 266 262 260 259 259 258 257 256 256 257 257 258 257 256 254 251 249 249 250
220 224 225 226 227 227 229 234 245 254 261 263 255 238 224 219 219 220 221 221 220 215 210 208 210 214 219 226 230 226 221 221 231 242 251 253 253 253 251 249 247 247 250 254 258 262 266 269 271 271 269 265 261 260 260 259 257 257 258 258 258 258 256 254 253 252 250 249 250
231 233 232 230 231 233 237 242 249 254 257 258 255 249 240 228 222 219 218 217 215 212 211 212 214 218 223 228 225 220 220 227 238 246 251 251 254 257 258 256 254 255 259 263 267 270 272 272 273 272 271 270 268 264 262 260 258 258 258 259 259 259 257 255 254 253 252 251 250
236 240 241 239 241 243 247 249 252 254 255 254 252 250 243 229 220 216 214 212 211 211 211 214 216 221 225 225 219 219 224 234 242 246 248 252 258 262 264 263 261 262 266 270 274 275 276 275 274 273 273 273 273 271 268 264 260 259 259 260 260 259 258 256 255 254 253 251 251
241 245 247 248 250 252 251 250 249 249 248 246 245 242 234 221 215 212 209 208 210 211 213 215 219 223 223 218 216 221 229 238 242 244 247 254 263 269 271 270 268 268 271 275 278 280 279 277 276 275 275 275 276 275 272 267 263 260 260 259 259 257 256 257 254 252 251 251 251
241 245 245 246 245 244 243 241 239 237 234 230 227 222 216 211 209 206 204 206 211 214 216 219 223 224 220 216 218 224 233 238 240 242 249 258 269 275 277 278 277 275 275 278 281 283 282 280 278 277 278 278 278 278 275 270 265 261 260 260 259 258 257 256 255 253 252 252 252
230 234 233 229 226 226 228 229 231 230 226 220 215 210 206 203 203 203 205 210 214 217 219 222 225 222 217 216 221 229 234 236 238 243 252 264 275 280 282 283 283 281 280 281 282 283 283 282 281 281 281 281 281 280 279 275 269 264 261 260 260 258 258 258 258 255 253 253 252
209 213 214 212 215 220 223 224 226 225 221 214 208 204 200 199 201 204 209 214 216 217 218 220 220 217 215 219 226 232 234 235 238 244 255 267 277 283 286 287 288 286 284 282 281 281 281 281 282 282 283 284 283 283 282 280 275 269 264 262 260 258 258 258 257 255 253 252 251
198 201 205 209 214 217 219 219 219 217 212 206 202 199 198 200 203 207 210 213 214 214 215 216 214 213 216 222 229 233 234 234 238 246 257 268 278 285 289 291 291 289 286 282 279 278 278 279 281 283 284 285 285 284 283 282 279 274 268 264 262 259 258 257 256 255 254 252 252
198 200 203 207 209 210 209 209 208 206 203 199 197 197 198 201 203 206 208 210 211 212 212 212 212 215 221 228 233 234 234 234 239 247 258 269 279 287 292 294 291 288 284 279 276 275 276 277 280 282 284 285 285 285 284 283 280 276 271 266 264 262 259 257 256 255 254 253 252
194 196 197 198 198 197 196 196 197 199 199 197 197 198 200 202 204 206 207 208 209 209 210 212 215 220 227 233 235 235 234 236 240 248 259 271 281 289 293 294 292 287 281 276 274 274 275 277 279 282 283 284 284 284 284 283 281 277 272 266 264 263 261 258 257 256 255 254 253
191 192 192 191 189 187 186 188 193 198 201 200 200 200 201 202 204 206 208 209 209 209 211 214 219 225 230 234 235 235 235 238 243 253 264 275 284 290 293 294 291 286 280 276 273 273 273 275 277 279 280 281 282 283 284 283 281 277 272 267 263 262 261 259 259 258 257 256 254
188 189 187 185 183 181 183 188 197 203 205 204 203 202 201 200 201 204 208 209 209 211 215 220 225 229 233 235 236 236 238 242 250 260 271 281 288 292 294 293 290 285 279 276 274 273 273 274 275 276 278 279 280 282 283 283 281 275 270 266 264 262 261 260 260 260 259 257 256
184 184 182 179 177 179 186 195 203 207 208 206 205 202 198 195 196 201 207 210 211 215 220 225 230 233 235 236 237 239 242 249 258 268 278 286 291 293 293 291 288 283 279 276 275 274 274 275 275 276 277 278 279 281 282 282 279 273 268 265 264 264 262 261 261 261 261 260 258
176 177 177 177 179 185 193 202 208 211 209 206 201 196 192 189 192 200 208 212 215 218 222 226 229 231 233 235 238 241 247 255 265 275 284 290 293 294 292 289 286 283 280 277 275 275 275 276 276 277 278 279 280 281 281 279 275 271 268 267 266 266 265 263 262 262 263 262 261
170 174 179 182 187 192 198 205 210 212 208 199 191 186 183 183 191 202 210 214 214 212 211 211 214 221 230 235 239 244 251 261 272 282 289 293 293 292 290 288 287 287 285 282 281 280 280 280 280 280 281 281 281 282 281 278 273 269 268 267 266 266 266 265 263 263 263 264 264
176 181 185 190 194 197 198 197 200 200 195 185 179 176 177 180 192 204 211 210 203 195 192 196 206 220 231 238 243 249 258 267 278 286 291 293 290 287 286 285 286 286 286 285 284 285 285 286 286 285 285 285 284 283 281 279 273 269 267 266 266 266 266 266 264 263 262 264 265